"Pseudo-MPEC" for CAXYQ32

Created 2024 Oct 5 4:22:06 UT using Find_Orb

Click here for an explanation of pseudo-MPECs

 
 Astrometry: 
     CAXYQ32*1C2024 10 02.24170100 00 36.853+25 33 26.71   ~A26b       VNEOCPG96
     CAXYQ32 1C2024 10 02.24734900 00 37.339+25 33 15.12   ~A26b 21.28GVNEOCPG96
     CAXYQ32 1C2024 10 02.25301400 00 37.728+25 33 03.49   ~A26b 22.03GVNEOCPG96
     CAXYQ32 1C2024 10 02.25866300 00 38.203+25 32 51.32   ~A26b 21.28GVNEOCPG96
     CAXYQ32  C2024 10 02.30281300 00 41.278+25 31 14.69   ~A287 21.5 GVNEOCPH01
     CAXYQ32  C2024 10 02.30620500 00 41.535+25 31 07.31   ~A287 21.2 GVNEOCPH01
     CAXYQ32  C2024 10 02.31897700 00 42.483+25 30 39.39   ~A287 21.3 GVNEOCPH01
     CAXYQ32  C2024 10 02.32401100 00 42.858+25 30 28.40   ~A287 21.5 GVNEOCPH01
     CAXYQ32 KC2024 10 03.14194800 01 55.524+25 00 39.31   ~A347 21.71GVNEOCPV06
     CAXYQ32 KC2024 10 03.14433100 01 55.693+25 00 34.20   ~A347 21.54GVNEOCPV06
     CAXYQ32 KC2024 10 03.14671500 01 55.877+25 00 29.02   ~A347 21.61GVNEOCPV06
     CAXYQ32 KC2024 10 03.14909600 01 56.053+25 00 23.94   ~A347 21.56GVNEOCPV06
     CAXYQ32 KC2024 10 03.15030500 01 55.43 +25 00 19.6    ~A347 21.9 GVNEOCPH21
     CAXYQ32 KC2024 10 03.15359400 01 55.67 +25 00 12.5    ~A347 21.6 GVNEOCPH21
     CAXYQ32 KC2024 10 03.15534900 01 55.81 +25 00 08.7    ~A347 21.5 GVNEOCPH21
     CAXYQ32 !C2024 10 03.29003 00 02 06.91 +24 55 15.4    ~A37b 21.4 GVNEOCP673
     CAXYQ32 !C2024 10 03.29791 00 02 07.49 +24 54 57.8    ~A37b       VNEOCP673

Station data:
(673) Table Mountain Observatory, Wrightwood  (N34.381485 W117.682170)
   US/California.  Observers J. Chesley, J. Pittichova. Measurer W. M. Owen
   Jr. 0.61-m f/16 reflector + CCD.
(G96) Mt. Lemmon Survey  (N32.442729 W110.788720)  US/Arizona.  Observer E.
   J. Christensen. 1.5-m reflector + 10K CCD.
(H01) Magdalena Ridge Observatory, Socorro  (N33.984833 W107.189333)  US/New
   Mexico.  Observers W. H. Ryan, E. V. Ryan. Measurer W. H. Ryan. 2.4-m
   f/8.9 reflector + CCD.
(H21) Astronomical Research Observatory, Westfield  (N39.483054 W87.968270)
   US/Illinois.  Observer R. Holmes. Measurers S. Foglia, L. Buzzi, T.
   Linder, R. Holmes. 0.76-m f/3.0 astrograph + CCD0.81-m f/4.0 astrograph +
   CCD0.61-m f/4.5 astrograph + CCD0.40-m f/5.32 astrograph + CCD.
(V06) Catalina Sky Survey-Kuiper  (N32.416871 W110.732550)  US/Arizona.
   Observers T. A. Pruyne, B. M. Africano, E. J. Christensen, G. A. Farneth,
   D. C. Fuls, A. R. Gibbs, A. D. Grauer, H. Gröller, J. A. Johnson, R. A.
   Kowalski, S. M. Larson, G. J. Leonard, D. Rankin, R. L. Seaman, F. C.
   Shelly, K. W. Wierzchoś. 1.55-m reflector + CCD.

Orbital elements:  CAXYQ32
   Perihelion 2024 Sep 23.72757 +/- 4.38 TT = 17:27:41 (JD 2460577.22757)
Epoch 2024 Oct  3.0 TT = JDT 2460586.5   Earth MOID: 0.2773      AutoNEOCP
M   3.53344409 +/- 1.6              (J2000 ecliptic)
n   0.38106972 +/- 0.00745          Peri.  147.58934 +/- 4.0
a   1.88422641 +/- 0.0246           Node   214.63848 +/- 0.58
e   0.3320603 +/- 0.00683           Incl.   11.63279 +/- 0.26
P   2.586/944.691d         H 23.15  G  0.15   U  9.5
q 1.25854950 +/- 0.00429    Q 2.50990333 +/- 0.0455
From 17 observations 2024 Oct. 2-3 (25.3 hr); mean residual 0".29
Residuals in arcseconds: 
241002 G96  .66-  .80-    241002 H01  .02-  .16+    241003 H21  .18-  .38-    
241002 G96  .28+  .27-    241002 H01  .01-  .19+    241003 H21  .31-  .31-    
241002 G96  .10-  .27+    241003 V06  .27+  .10+    241003 H21  .22-  .28-    
241002 G96  .70+  .26+    241003 V06  .04+  .11+    241003 673  .23+  .31+    
241002 H01  .09-  .16+    241003 V06  .02+  .06+    241003 673  .15+  .13+    
241002 H01  .01-  .18+    241003 V06  .10-  .10+    

Ephemerides (geocentric):
Date (UTC) HH   RA             Dec           delta  r     elong  mag " sig PA
---- --------  ------------   ------------  ------ ------ -----  --- --------
2024 10 05 04  00 04 50.057   +23 44 57.39  .27740 1.2626 158.8 21.8 3.94 158
2024 10 05 05  00 04 53.702   +23 43 22.04  .27740 1.2626 158.8 21.8 4.09 158
2024 10 05 06  00 04 57.348   +23 41 46.62  .27740 1.2627 158.8 21.8 4.24 158
2024 10 05 07  00 05 00.995   +23 40 11.13  .27741 1.2627 158.8 21.8 4.40 158
2024 10 05 08  00 05 04.642   +23 38 35.58  .27741 1.2627 158.9 21.8 4.56 158
2024 10 05 09  00 05 08.291   +23 36 59.97  .27742 1.2627 158.9 21.8 4.72 158
2024 10 05 10  00 05 11.941   +23 35 24.30  .27742 1.2628 158.9 21.8 4.88 158
2024 10 05 11  00 05 15.591   +23 33 48.56  .27742 1.2628 159.0 21.8 5.05 158
2024 10 05 12  00 05 19.242   +23 32 12.76  .27743 1.2628 159.0 21.8 5.22 158
2024 10 05 13  00 05 22.895   +23 30 36.89  .27743 1.2629 159.0 21.8 5.39 157
2024 10 05 14  00 05 26.548   +23 29 00.97  .27744 1.2629 159.0 21.8 5.57 157
2024 10 05 15  00 05 30.202   +23 27 24.98  .27744 1.2629 159.1 21.8 5.75 157
2024 10 05 16  00 05 33.857   +23 25 48.93  .27745 1.2630 159.1 21.8 5.93 157
2024 10 05 17  00 05 37.513   +23 24 12.82  .27745 1.2630 159.1 21.8 6.11 157
2024 10 05 18  00 05 41.170   +23 22 36.65  .27746 1.2630 159.1 21.8 6.30 157
2024 10 05 19  00 05 44.827   +23 21 00.42  .27747 1.2630 159.2 21.8 6.48 157
2024 10 05 20  00 05 48.486   +23 19 24.13  .27747 1.2631 159.2 21.8 6.68 157
2024 10 05 21  00 05 52.146   +23 17 47.78  .27748 1.2631 159.2 21.8 6.87 157
2024 10 05 22  00 05 55.806   +23 16 11.37  .27749 1.2631 159.3 21.8 7.07 157
2024 10 05 23  00 05 59.468   +23 14 34.90  .27750 1.2632 159.3 21.8 7.27 157
2024 10 06 00  00 06 03.130   +23 12 58.37  .27750 1.2632 159.3 21.8 7.47 157
2024 10 06 01  00 06 06.793   +23 11 21.78  .27751 1.2632 159.3 21.8 7.67 157
2024 10 06 02  00 06 10.457   +23 09 45.13  .27752 1.2633 159.4 21.7 7.88 157
2024 10 06 03  00 06 14.122   +23 08 08.43  .27753 1.2633 159.4 21.7 8.09 156
2024 10 06 04  00 06 17.788   +23 06 31.67  .27754 1.2633 159.4 21.7 8.30 156
2024 10 06 05  00 06 21.455   +23 04 54.85  .27754 1.2634 159.4 21.7 8.52 156
2024 10 06 06  00 06 25.123   +23 03 17.98  .27755 1.2634 159.5 21.7 8.73 156
2024 10 06 07  00 06 28.792   +23 01 41.05  .27756 1.2634 159.5 21.7 8.95 156
2024 10 06 08  00 06 32.461   +23 00 04.06  .27757 1.2635 159.5 21.7 9.18 156
2024 10 06 09  00 06 36.132   +22 58 27.01  .27758 1.2635 159.5 21.7 9.40 156
2024 10 06 10  00 06 39.803   +22 56 49.92  .27759 1.2635 159.6 21.7 9.63 156
2024 10 06 11  00 06 43.476   +22 55 12.76  .27760 1.2636 159.6 21.7 9.86 156
2024 10 06 12  00 06 47.149   +22 53 35.55  .27761 1.2636 159.6 21.7 10.1 156
2024 10 06 13  00 06 50.823   +22 51 58.29  .27762 1.2636 159.6 21.7 10.3 156
2024 10 06 14  00 06 54.498   +22 50 20.97  .27764 1.2637 159.7 21.7 10.6 156
2024 10 06 15  00 06 58.174   +22 48 43.60  .27765 1.2637 159.7 21.7 10.8 156
2024 10 06 16  00 07 01.851   +22 47 06.17  .27766 1.2637 159.7 21.7 11.1 156
2024 10 06 17  00 07 05.529   +22 45 28.69  .27767 1.2638 159.8 21.7 11.3 156
2024 10 06 18  00 07 09.208   +22 43 51.16  .27768 1.2638 159.8 21.7 11.6 156
2024 10 06 19  00 07 12.887   +22 42 13.58  .27770 1.2638 159.8 21.7 11.8 156
2024 10 06 20  00 07 16.568   +22 40 35.94  .27771 1.2639 159.8 21.7 12.1 156
2024 10 06 21  00 07 20.249   +22 38 58.25  .27772 1.2639 159.9 21.7 12.3 156
2024 10 06 22  00 07 23.932   +22 37 20.51  .27773 1.2639 159.9 21.7 12.6 156
2024 10 06 23  00 07 27.615   +22 35 42.72  .27775 1.2640 159.9 21.7 12.8 156
2024 10 07 00  00 07 31.299   +22 34 04.88  .27776 1.2640 159.9 21.7 13.1 156
2024 10 07 01  00 07 34.984   +22 32 26.99  .27778 1.2640 160.0 21.7 13.4 156
2024 10 07 02  00 07 38.670   +22 30 49.04  .27779 1.2641 160.0 21.7 13.6 156
2024 10 07 03  00 07 42.357   +22 29 11.05  .27780 1.2641 160.0 21.7 13.9 155